COSMOS 2251 DEB, 35645

Orbit data source: Space-Track

COSMOS 2251 DEB, 35645 is space debris in LEO originally from a launch on Wed, 16 Jun 1993 UTC launched from the Plesetsk Missile And Space Complex (PKMTR). The debris from Iridium 33, an American commercial communications satellite, has been tracked extensively since its accidental collision with the defunct Russian satellite Cosmos 2251 in 2009. This event, occurring at high speed in low Earth orbit (LEO), generated thousands of pieces of space debris, significantly increasing the risk of further collisions. The Iridium 33 debris cloud has impacted space traffic management and orbital debris mitigation strategies, making it a subject of ongoing study in space situational awareness.

Loading next visibility...
Identifier
35645, 1993-036ANL
Orbit
LEO
Country
Flag of CISCIS
Related business
Manufacturer
Unknown
Mission
Spacecraft
Bus & Motor
Unknown
Mass
Unknown
Launch date (UTC)
1993-06-16 (33 years ago)
Launch vehicle
Unknown
Launch site
Plesetsk Missile And Space Complex (PKMTR)
Object type
Payload
Rocket body
Debris
Shape & HBR
Unknown shape, 0.1 m
Radar Cross Section
Small (<0.1 m²)

Expand to show TLE details & history
Last TLE update: 2 days ago

TLE from 2 days ago
0 COSMOS 2251 DEB
1 35645U 93036ANL 26174.08160888  .00003139  00000-0  83507-3 0  9995
2 35645  73.9627  86.8172 0069204 197.7697 162.1042 14.47562441895532
Epoch: 2026-06-23T01:57Z
TLE epoch observation values (Epoch: 2026-06-23T01:57:31.007Z)
Latitude
0.00002°
Longitude
146.17972°
Altitude
783.117 km
Speed
7.438 km/s
True Right ascension
05h 47m 16s
True Declination
0° 00' 00"
Sunlit
Object was in daylight at epoch
Visualization orbit readout
Latitude
Unknown
Longitude
Unknown
Altitude
Unknown
Speed
Unknown
Apparent Right ascension
Unknown
Apparent Declination
Unknown
Sunlit
N/A
Visualization observer readout
Local Sidereal Time
00:14:42
Azimuth
Unknown
Elevation
Unknown
Doppler factor
Unknown
Orbital elements
Apogee altitude
780.438 km
Perigee altitude
682.039 km
Semi-major axis
7,109.375 km
Eccentricity
0.00692
Inclination
73.9627°
RAAN
86.8172°
Arg. of periapsis
197.7697°
True anomaly
162.34589°
Mean anomaly
162.1042°
Eccentric anomaly
162.22524°
Mean motion
3.62073 °/min
Orbital period
99.43 mins
BSTAR
0.00083507
Loading maneuver chart data...
Computing Atmospheric mass density...

Documentation

Showing up to 5 results
|